NOAA 16 DEB, 41429

Orbit data source: Space-Track

NOAA 16 DEB, 41429 is space debris in SSO originally from a launch on Thu, 21 Sep 2000 UTC launched from the Air Force Western Test Range (AFWTR). Debris objects in space refer to the collection of defunct objects orbiting the Earth. Examples of debris include non-operational satellites, rocket bodies, and fragments generated from explosions, collisions, or faulty payload assembly.

Loading next visibility...
Identifier
41429, 2000-055LJ
Orbit
SSO
Country
Flag of USUS
Related business
Manufacturer
Unknown
Mission
Spacecraft
Bus & Motor
Unknown
Mass
Unknown
Launch date (UTC)
2000-09-21 (26 years ago)
Launch vehicle
Unknown
Launch site
Air Force Western Test Range (AFWTR)
Object type
Payload
Rocket body
Debris
Shape & HBR
Unknown shape, 0.1 m
Radar Cross Section
Medium (>0.1 m² and <1 m²)

Expand to show TLE details & history
Last TLE update: 2 days ago

TLE from 2 days ago
0 NOAA 16 DEB
1 41429U 00055LJ  26235.69249064  .00002644  00000-0  10305-2 0  9995
2 41429  98.7070 322.1922 0018334 143.5186 216.7250 14.30471462542748
Epoch: 2026-08-23T16:37Z
TLE epoch observation values (Epoch: 2026-08-23T16:37:11.191Z)
Latitude
0.00006°
Longitude
100.91067°
Altitude
803.629 km
Speed
7.446 km/s
True Right ascension
21h 28m 46s
True Declination
0° 00' 00"
Sunlit
Object was in full shadow at epoch
Visualization orbit readout
Latitude
Unknown
Longitude
Unknown
Altitude
Unknown
Speed
Unknown
Apparent Right ascension
Unknown
Apparent Declination
Unknown
Sunlit
N/A
Visualization observer readout
Local Sidereal Time
13:05:39
Azimuth
Unknown
Elevation
Unknown
Doppler factor
Unknown
Orbital elements
Apogee altitude
800.437 km
Perigee altitude
774.163 km
Semi-major axis
7,165.437 km
Eccentricity
0.00183
Inclination
98.707°
RAAN
322.1922°
Arg. of periapsis
143.5186°
True anomaly
216.5996°
Mean anomaly
216.725°
Eccentric anomaly
216.66228°
Mean motion
3.57832 °/min
Orbital period
100.61 mins
BSTAR
0.0010305
Loading maneuver chart data...
Computing Atmospheric mass density...

Documentation

Showing up to 5 results
|